TimeCST,TemperatureF,Dew PointF,Humidity,Sea Level PressureIn,VisibilityMPH,Wind Direction,Wind SpeedMPH,Gust SpeedMPH,PrecipitationIn,Events,Conditions,WindDirDegrees,DateUTC
12:53 AM,30.0,26.1,85,30.11,10.0,South,5.8,-,N/A,,Clear,170,2012-11-08 06:53:00
1:53 AM,30.0,27.0,88,30.10,10.0,South,8.1,-,N/A,,Clear,170,2012-11-08 07:53:00
2:53 AM,30.9,27.0,85,30.09,10.0,SSE,9.2,-,N/A,,Clear,150,2012-11-08 08:53:00
3:53 AM,30.9,28.0,89,30.07,10.0,SSE,8.1,-,N/A,,Clear,150,2012-11-08 09:53:00
4:53 AM,32.0,28.0,85,30.06,10.0,SSE,10.4,-,N/A,,Clear,160,2012-11-08 10:53:00
5:53 AM,30.9,28.0,89,30.06,10.0,South,10.4,-,N/A,,Clear,170,2012-11-08 11:53:00
6:53 AM,32.0,28.0,85,30.04,10.0,SSE,13.8,-,N/A,,Clear,160,2012-11-08 12:53:00
7:53 AM,33.1,30.0,89,30.05,10.0,SSE,12.7,-,N/A,,Clear,160,2012-11-08 13:53:00
8:53 AM,37.0,32.0,82,30.05,10.0,South,11.5,-,N/A,,Clear,170,2012-11-08 14:53:00
9:53 AM,44.1,35.1,71,30.04,10.0,South,17.3,25.3,N/A,,Clear,180,2012-11-08 15:53:00
10:53 AM,48.0,36.0,63,30.03,10.0,South,23.0,27.6,N/A,,Clear,170,2012-11-08 16:53:00
11:53 AM,51.1,37.0,59,29.99,10.0,SSE,19.6,25.3,N/A,,Clear,160,2012-11-08 17:53:00
12:53 PM,54.0,37.0,53,29.97,10.0,South,17.3,24.2,N/A,,Clear,170,2012-11-08 18:53:00
1:53 PM,55.9,36.0,47,29.95,10.0,South,16.1,-,N/A,,Clear,180,2012-11-08 19:53:00
2:53 PM,55.9,36.0,47,29.95,10.0,South,13.8,-,N/A,,Clear,180,2012-11-08 20:53:00
3:53 PM,55.0,36.0,49,29.96,10.0,South,9.2,-,N/A,,Clear,180,2012-11-08 21:53:00
4:53 PM,50.0,36.0,59,29.97,10.0,SSE,4.6,-,N/A,,Clear,160,2012-11-08 22:53:00
5:53 PM,48.0,37.0,66,29.98,10.0,SE,8.1,-,N/A,,Clear,140,2012-11-08 23:53:00
6:53 PM,45.0,36.0,71,29.99,10.0,SE,9.2,-,N/A,,Clear,140,2012-11-09 00:53:00
7:53 PM,43.0,36.0,76,29.99,10.0,SE,6.9,-,N/A,,Clear,130,2012-11-09 01:53:00
8:53 PM,42.1,35.1,76,29.99,10.0,SE,8.1,-,N/A,,Clear,140,2012-11-09 02:53:00
9:53 PM,41.0,35.1,79,29.99,10.0,SE,8.1,-,N/A,,Clear,140,2012-11-09 03:53:00
10:53 PM,39.0,34.0,82,29.98,10.0,SSE,5.8,-,N/A,,Clear,150,2012-11-09 04:53:00
11:53 PM,37.0,33.1,86,29.99,9.0,Calm,Calm,-,N/A,,Clear,0,2012-11-09 05:53:00